Regional Weather Roundup
Issued by NWS

Home | Current Version | Previous Version | Graphics & Text | Print | Product List | Glossary On
Versions: 1 2 3 4 5 6 7 8 9 10 11 12 13 14 15 16 17 18 19 20 21 22 23 24 25 26 27 28 29 30 31 32 33 34 35 36 37 38 39 40 41 42 43 44 45 46 47 48 49 50
448
ASUS43 KTOP 250959
RWRKS

WEATHER ROUNDUP FOR KANSAS
NATIONAL WEATHER SERVICE GOODLAND KS
500 AM CDT WED MAY 25 2016

NOTE:  "FAIR" INDICATES FEW OR NO CLOUDS BELOW 12,000 FEET WITH NO
SIGNIFICANT WEATHER AND/OR OBSTRUCTIONS TO VISIBILITY.

KSZ001>006-013>018-027>032-041>047-251100-
NORTHWEST KANSAS

CITY           SKY/WX    TMP DP  RH WIND       PRES   REMARKS
GOODLAND       FOG       55  54  96 N17       29.81R VSB 3/4
HAYS           CLOUDY    55  52  88 SE18G25   29.77R
HILL CITY      CLOUDY    63  55  75 E13       29.80R
RUSSELL        CLOUDY    61  57  87 SE23G30   29.75S
$$

KSZ061>065-074>080-084>089-251100-
SOUTHWEST KANSAS

CITY           SKY/WX    TMP DP  RH WIND       PRES   REMARKS
DODGE CITY     MOCLDY    67  67 100 SE12      29.76S FOG
ELKHART          N/A     57  33  40 W12         N/A
GARDEN CITY    CLEAR     64  63  96 SW10      29.76R FOG
GREAT BEND     MOCLDY    63  54  72 SE14      29.79R
LIBERAL        CLEAR     63  57  82 SW14      29.78F
$$

KSZ066>073-081>083-090>101-251100-
SOUTHEAST KANSAS

CITY           SKY/WX    TMP DP  RH WIND       PRES   REMARKS
CHANUTE        TSTM      67  60  78 N13G21    29.96S
COFFEYVILLE    TSTM      64  61  90 N14       29.96R FOG
HUTCHINSON     CLOUDY    64  61  90 SE16G22   29.81F
MEDICINE LODGE   N/A     65  62  90 SE14G24   29.80F
NEWTON         CLOUDY    63  57  82 SE9       29.85F
PARSONS        RAIN      65  62  90 NE7       29.96F
WICHITA INTL   CLOUDY    66  62  87 SE15      29.83F
WICHITA JABRA  CLOUDY    63  63 100 SE9       29.84F
WINFIELD       TSTM      66  63  90 E12G20    29.89S
$$

KSZ007>012-019>026-033>040-048>060-102>105-251100-
NORTHEAST KANSAS

CITY           SKY/WX    TMP DP  RH WIND       PRES   REMARKS
CONCORDIA      CLOUDY    62  57  83 NW12      29.86R
EMPORIA        LGT RAIN  65  58  78 SE18G25   29.85F
LAWRENCE       CLOUDY    64  58  80 S24G30    29.83F
MANHATTAN      CLOUDY    64  61  90 S5        29.82R
OLATHE IND     LGT RAIN  67  57  70 SW32G41   29.92F
OLATHE EXE     CLOUDY    66  56  70 SW13G25   29.91F
SALINA         CLOUDY    64  59  83 SE15      29.79F
TOPEKA BILLARD CLOUDY    68  57  68 SE17G28   29.83R
TOPEKA FORBES  LGT RAIN  68  57  68 S23G31    29.82S
$$




USA.gov is the U.S. government's official web portal to all federal, state and local government web resources and services.